Find OneWeb SL0066

NORAD ID: 45424 Int'l Des: 2020-020 Owner: ONEWEB Country: UK Constellation: oneweb operational
LEOCIRCULARPOLARONEWEB_TYPE

リアルタイム位置

3D地球を読み込み中...

OneWeb SL0066について

説明を読み込み中...

次回通過

Passes for default location (London). Set your location on the main map for personalized predictions.

高度履歴

Loading altitude history...

軌道要素

1 45424U 20020A 26125.49680875 .00000526 00000-0 14493-2 0 9992
2 45424 87.8926 29.5596 0001980 77.4397 282.6952 13.11417075297082
Epoch: May 5, 2026 • Age: 7 hours

現在のステータス

高度 1226.0 km
速度 7.24 km/s
衛星直下点 -21.60°S, 122.08°W
打ち上げ日 Mar 21, 2020
運用期間 6.1 years
タイプ internet

技術仕様

分類 Payload
質量 148.00 kg
乾燥質量 140.00 kg
総質量 148.00 kg
長さ 1.30 m
直径 1.00 m
スパン 5.00 m
形状 Trapezoid+2 pan
製造者 ONEWUS
バスタイプ ARROW
フェーズステータス In Orbit
所有者/国 ONEWEB/UK

Most Searched